Weather in Letnik

Russia / Rostov Oblast     46°00′09″N   41°16′04″E
temp.,
°C
wind,
m/s
gust,
m/s
humid.,
%
clouds,
%
prec.,
mm/h
press.,
hPa
HPBL,
m
29 may, sun
sun2900:00+16nne22771 0.0 101414
03:00+15ene34825 0.0 101447
06:00+16ene24810 0.0 1014111
09:00+22ese34600 0.0 1014511
12:00+26sse23483 0.0 10141270
15:00+28ssw23445 0.0 10131967
18:00+27wsw23550 0.0 1013120
21:00+20w33721 0.0 101537
30 may, mon
mon3000:00+18wnw22760 0.0 101511
03:00+17nnw11820 0.0 101511
06:00+19ese11770 0.0 101643
09:00+25e22590 0.0 1016516
12:00+29ese34470 0.0 10151492
15:00+30e45420 0.0 10141891
18:00+28ene36550 0.0 1014198
21:00+22ene46560 0.0 101477
31 may, tue
tue3100:00+20ene34570 0.0 101456
03:00+18ene46540 0.0 101383
06:00+18e39675 0.0 1014153
09:00+25e58465 0.0 1014454
12:00+29e56375 0.0 10131091
15:00+30e55325 0.0 10131458
18:00+28e2349100 0.0 101258
21:00+23e2351100 0.0 101216
1 june, wed
wed100:00+20w2369100 0.0 101229
03:00+19wnw1170100 0.0 101311
06:00+21se1172100 0.0 101436
09:00+26se235397 0.0 1014515
12:00+29ese453270 0.0 10141016
15:00+30e463099 0.0 10131685
18:00+29ene224721 0.0 101433
21:00+23ne3351100 0.0 101421
2 june, thu
thu200:00+20e2249100 0.0 101311
03:00+20ssw2260100 0.1 101416
06:00+20sw258092 0.0 1015153
09:00+24ssw336427 0.0 1015480
12:00+28s225153 0.0 10151062
15:00+30ese234110 0.0 10151740
18:00+30ese12455 0.0 10141374
21:00+23nw11555 0.0 101511